Oakland, CA

9:57 AM PDT on June 23, 2018 (GMT -0700)
Metro Oakland International

Weather History for KOAK - October, 2017

Change the Weather History Date:

Sunday, October 8, 2017

  Actual Average Record
Temperature  
Mean Temperature 63 °F 62 °F  
Max Temperature 77 °F 71 °F 84 °F (2002)
Min Temperature 49 °F 52 °F 44 °F (2011)
Degree Days  
Heating Degree Days 2 4  
Month to date heating degree days 17 27  
Since 1 July heating degree days 90 227  
Cooling Degree Days 0 1  
Month to date cooling degree days 0 8  
Year to date cooling degree days 290 133  
Growing Degree Days 12 (Base 50)    
Moisture  
Dew Point 49 °F    
Average Humidity 64    
Maximum Humidity 100    
Minimum Humidity 28    
Precipitation  
Precipitation 0.00 in 0.03 in 0.19 in (1973)
Month to date precipitation 0.00 0.17  
Year to date precipitation 20.12 13.67  
Sea Level Pressure  
Sea Level Pressure 29.81 in    
Wind  
Wind Speed 8 mph (WNW)    
Max Wind Speed 21 mph    
Max Gust Speed 26 mph    
Visibility 10 miles    
Events      
T = Trace of Precipitation, MM = Missing Value Source: NWS Daily Summary

Daily Weather History Graph

Daily Weather History Graph

Search for Another Location

Airport or City:

Astronomy

Oct. 08, 2017 Rise Set
Actual Time 7:11 AM PDT 6:40 PM PDT
Civil Twilight 6:44 AM PDT 7:07 PM PDT
Nautical Twilight 6:14 AM PDT 7:37 PM PDT
Astronomical Twilight 5:43 AM PDT 8:07 PM PDT
Moon 9:09 PM PDT (10/8) 10:16 AM PDT (10/8)
Length of Visible Light 12h 22m
Length of Day
11h 29m
Waning Gibbous, 88% of the Moon is Illuminated
Oct 8
Waning Gibbous
Oct 12
Last Quarter
Oct 19
New
Oct 27
First Quarter
Nov 3
Full

Hourly Weather History & Observations

Time (PDT) Temp. Dew Point Humidity Pressure Visibility Wind Dir Wind Speed Gust Speed Precip Events Conditions
12:53 AM 57.0 °F 54.0 °F 89% 29.82 in 9.0 mi SSW 10.4 mph - N/A   Clear
1:53 AM 57.9 °F 55.0 °F 90% 29.81 in 9.0 mi SSW 11.5 mph - N/A   Clear
2:53 AM 57.0 °F 53.1 °F 87% 29.80 in 9.0 mi SW 11.5 mph - N/A   Clear
3:53 AM 57.0 °F 53.1 °F 87% 29.80 in 9.0 mi SW 3.5 mph - N/A   Clear
4:53 AM 51.1 °F 50.0 °F 96% 29.79 in 10.0 mi East 3.5 mph - N/A   Clear
5:53 AM 51.1 °F 50.0 °F 96% 29.81 in 10.0 mi NE 4.6 mph - N/A   Clear
6:53 AM 48.9 °F 48.9 °F 100% 29.82 in 10.0 mi East 3.5 mph - N/A   Partly Cloudy
7:53 AM 53.1 °F 52.0 °F 96% 29.83 in 8.0 mi Calm Calm - N/A   Clear
8:53 AM 59.0 °F 54.0 °F 83% 29.84 in 9.0 mi Calm Calm - N/A   Clear
9:53 AM 60.1 °F 55.0 °F 83% 29.85 in 8.0 mi Variable 3.5 mph - N/A   Clear
10:53 AM 64.0 °F 55.0 °F 73% 29.84 in 10.0 mi WNW 8.1 mph - N/A   Clear
11:53 AM 66.9 °F 53.1 °F 61% 29.84 in 10.0 mi West 10.4 mph - N/A   Clear
12:53 PM 72.0 °F 51.1 °F 48% 29.82 in 10.0 mi WNW 9.2 mph - N/A   Clear
1:53 PM 73.9 °F 48.0 °F 40% 29.80 in 10.0 mi WNW 12.7 mph - N/A   Clear
2:53 PM 77.0 °F 46.9 °F 34% 29.78 in 10.0 mi WNW 11.5 mph - N/A   Clear
3:53 PM 75.0 °F 52.0 °F 44% 29.78 in 10.0 mi WNW 11.5 mph - N/A   Partly Cloudy
4:53 PM 73.0 °F 51.1 °F 46% 29.78 in 10.0 mi WNW 10.4 mph - N/A   Partly Cloudy
5:53 PM 71.1 °F 52.0 °F 51% 29.78 in 10.0 mi WNW 9.2 mph - N/A   Partly Cloudy
6:53 PM 66.0 °F 57.0 °F 73% 29.79 in 10.0 mi WNW 6.9 mph - N/A   Partly Cloudy
7:53 PM 66.9 °F 39.0 °F 36% 29.80 in 10.0 mi WNW 4.6 mph - N/A   Partly Cloudy
8:53 PM 64.0 °F 52.0 °F 65% 29.80 in 10.0 mi West 6.9 mph - N/A   Clear
9:53 PM 64.9 °F 50.0 °F 58% 29.80 in 10.0 mi WNW 9.2 mph - N/A   Clear
10:53 PM 66.0 °F 36.0 °F 33% 29.81 in 10.0 mi NW 8.1 mph - N/A   Clear
11:36 PM 64.9 °F 30.9 °F 28% 29.82 in 10.0 mi Calm Calm - N/A   Partly Cloudy
11:53 PM 64.9 °F 30.9 °F 28% 29.82 in 10.0 mi NNW 5.8 mph - N/A   Partly Cloudy